No particular awareness of the weather is required.    There are no Weather-warnings


Meteo18 Weather Cam more information Meteo18 Weather Cam


Thunder radar more information blitzortung!


Rain radar more information rain snow radar


Visit our other weather sites:

Template documentation
and downloads

And another site



Weather Underground History page Text

Daily Summary for June 7, 2017 Units:  English    Metric   Both
« Previous Day
Next Day »
Daily Weekly Monthly Yearly Custom
  High: Low: Average:
Temperature: TemperatureC °F 9.4 °F 13.9 °F
Dew Point: DewpointC °F 7.1 °F 8.6 °F
Humidity: Humidity % 50 % 72 %
Wind Speed: WindSpeedKMH mph 0.0 mph 7.4 mph
Wind Gust: WindSpeedGustKMH mph - -
Wind:- - WSW
Pressure: PressurehPa in 1016.8 in -
Precipitation: 0.0 in    
Historical Graphs
 
 
Tabular Data for June 7, 2017
Time Temperature Dew Point Pressure Wind Wind Speed Wind Gust Humidity Rainfall Rate (Hourly)
TemperatureC °F DewpointC °F PressurehPa in Calm     Humidity % HourlyPrecipMM in
00:02 11.0 °F 9.1 °F 1016.8 in SW 3.2 mph 12.9 mph 88 % 0.0 in
00:07 10.8 °F 9.1 °F 1017.2 in SSW 6.4 mph 11.3 mph 89 % 0.0 in
00:12 10.6 °F 9.0 °F 1017.2 in SSW 4.8 mph 11.3 mph 90 % 0.0 in
00:17 10.4 °F 8.8 °F 1017.2 in South 6.4 mph 11.3 mph 90 % 0.0 in
00:22 10.3 °F 8.9 °F 1017.2 in SSW 3.2 mph 11.3 mph 91 % 0.0 in
00:27 10.3 °F 9.1 °F 1017.2 in SW 9.7 mph 12.9 mph 92 % 0.0 in
00:32 10.4 °F 9.0 °F 1017.2 in SSW 3.2 mph 16.1 mph 91 % 0.0 in
00:42 10.6 °F 9.0 °F 1017.2 in WSW 4.8 mph 16.1 mph 90 % 0.0 in
00:47 10.7 °F 9.0 °F 1017.2 in WSW 8.0 mph 20.9 mph 89 % 0.0 in
00:52 10.7 °F 9.0 °F 1017.2 in SW 14.5 mph 20.9 mph 89 % 0.0 in
00:57 10.7 °F 8.8 °F 1017.5 in WSW 9.7 mph 20.9 mph 88 % 0.0 in
01:02 10.7 °F 8.8 °F 1017.5 in WSW 8.0 mph 20.9 mph 88 % 0.0 in
01:07 10.6 °F 8.7 °F 1017.5 in SW 6.4 mph 20.9 mph 88 % 0.0 in
01:12 10.6 °F 8.7 °F 1017.8 in West 8.0 mph 19.3 mph 88 % 0.0 in
01:17 10.6 °F 8.7 °F 1017.8 in SW 9.7 mph 20.9 mph 88 % 0.0 in
01:22 10.6 °F 8.7 °F 1017.8 in WSW 6.4 mph 20.9 mph 88 % 0.0 in
01:27 10.6 °F 8.5 °F 1017.8 in WSW 11.3 mph 20.9 mph 87 % 0.0 in
01:32 10.6 °F 8.5 °F 1017.8 in SW 4.8 mph 17.7 mph 87 % 0.0 in
01:37 10.6 °F 8.4 °F 1017.8 in West 9.7 mph 17.7 mph 86 % 0.0 in
01:42 10.6 °F 8.4 °F 1017.8 in SW 9.7 mph 17.7 mph 86 % 0.0 in
01:47 10.6 °F 8.4 °F 1017.8 in SSW 6.4 mph 16.1 mph 86 % 0.0 in
01:52 10.4 °F 8.3 °F 1017.8 in SW 12.9 mph 17.7 mph 87 % 0.0 in
01:57 10.3 °F 8.2 °F 1017.8 in WSW 8.0 mph 17.7 mph 87 % 0.0 in
02:02 10.2 °F 8.3 °F 1017.8 in WSW 6.4 mph 17.7 mph 88 % 0.0 in
02:07 10.2 °F 8.3 °F 1017.8 in WSW 6.4 mph 14.5 mph 88 % 0.0 in
02:12 10.2 °F 8.1 °F 1017.8 in SW 8.0 mph 14.5 mph 87 % 0.0 in
02:17 10.3 °F 8.2 °F 1017.8 in West 6.4 mph 17.7 mph 87 % 0.0 in
02:22 10.2 °F 8.1 °F 1017.8 in SW 9.7 mph 20.9 mph 87 % 0.0 in
02:27 10.2 °F 8.1 °F 1017.8 in SW 8.0 mph 20.9 mph 87 % 0.0 in
02:32 10.1 °F 8.0 °F 1017.8 in SW 6.4 mph 20.9 mph 87 % 0.0 in
02:37 10.0 °F 7.9 °F 1017.8 in WSW 6.4 mph 20.9 mph 87 % 0.0 in
02:42 9.9 °F 8.0 °F 1018.2 in WSW 12.9 mph 20.9 mph 88 % 0.0 in
02:47 9.9 °F 7.8 °F 1018.2 in SSW 8.0 mph 17.7 mph 87 % 0.0 in
02:52 9.9 °F 7.8 °F 1018.2 in WSW 4.8 mph 17.7 mph 87 % 0.0 in
02:57 9.9 °F 7.8 °F 1018.2 in West 6.4 mph 17.7 mph 87 % 0.0 in
03:02 9.9 °F 7.8 °F 1018.2 in SW 12.9 mph 17.7 mph 87 % 0.0 in
03:07 9.9 °F 7.8 °F 1018.2 in SW 6.4 mph 19.3 mph 87 % 0.0 in
03:12 9.9 °F 7.8 °F 1018.2 in WSW 8.0 mph 19.3 mph 87 % 0.0 in
03:17 9.9 °F 7.8 °F 1018.5 in WSW 9.7 mph 19.3 mph 87 % 0.0 in
03:22 9.9 °F 7.8 °F 1018.5 in WSW 6.4 mph 17.7 mph 87 % 0.0 in
03:27 9.8 °F 7.7 °F 1018.2 in SSW 6.4 mph 17.7 mph 87 % 0.0 in
03:32 9.8 °F 7.7 °F 1018.5 in SSW 6.4 mph 17.7 mph 87 % 0.0 in
03:37 9.9 °F 7.8 °F 1018.5 in SSW 4.8 mph 20.9 mph 87 % 0.0 in
03:42 9.9 °F 7.8 °F 1018.5 in SSW 8.0 mph 20.9 mph 87 % 0.0 in
03:52 9.9 °F 7.8 °F 1018.5 in SSW 6.4 mph 17.7 mph 87 % 0.0 in
03:57 9.9 °F 7.8 °F 1018.5 in SSW 6.4 mph 17.7 mph 87 % 0.0 in
04:02 9.9 °F 7.8 °F 1018.5 in West 9.7 mph 20.9 mph 87 % 0.0 in
04:07 9.9 °F 7.8 °F 1018.8 in SW 8.0 mph 20.9 mph 87 % 0.0 in
04:12 9.9 °F 7.8 °F 1018.8 in SW 4.8 mph 16.1 mph 87 % 0.0 in
04:17 9.9 °F 7.8 °F 1018.8 in WSW 17.7 mph 17.7 mph 87 % 0.0 in
04:22 9.9 °F 7.8 °F 1018.8 in SSW 3.2 mph 20.9 mph 87 % 0.0 in
04:27 9.8 °F 7.9 °F 1018.8 in WSW 4.8 mph 20.9 mph 88 % 0.0 in
04:32 9.8 °F 7.9 °F 1018.8 in WSW 9.7 mph 20.9 mph 88 % 0.0 in
04:37 9.7 °F 7.8 °F 1018.8 in WSW 9.7 mph 17.7 mph 88 % 0.0 in
04:42 9.6 °F 7.7 °F 1019.2 in WSW 8.0 mph 16.1 mph 88 % 0.0 in
04:47 9.6 °F 7.9 °F 1019.2 in WSW 11.3 mph 16.1 mph 89 % 0.0 in
04:52 9.6 °F 7.9 °F 1019.2 in SW 14.5 mph 16.1 mph 89 % 0.0 in
04:57 9.5 °F 7.8 °F 1019.2 in WSW 8.0 mph 19.3 mph 89 % 0.0 in
05:02 9.5 °F 7.8 °F 1019.2 in WSW 6.4 mph 19.3 mph 89 % 0.0 in
05:07 9.5 °F 7.8 °F 1019.2 in SW 3.2 mph 14.5 mph 89 % 0.0 in
05:12 9.5 °F 7.8 °F 1019.2 in West 4.8 mph 16.1 mph 89 % 0.0 in
05:17 9.5 °F 7.8 °F 1019.2 in SW 4.8 mph 16.1 mph 89 % 0.0 in
05:22 9.4 °F 7.7 °F 1019.2 in SW 3.2 mph 14.5 mph 89 % 0.0 in
05:27 9.4 °F 7.8 °F 1019.5 in West 4.8 mph 12.9 mph 90 % 0.0 in
05:32 9.4 °F 7.8 °F 1019.5 in WSW 4.8 mph 12.9 mph 90 % 0.0 in
05:37 9.4 °F 7.8 °F 1019.5 in West 6.4 mph 14.5 mph 90 % 0.0 in
05:42 9.5 °F 7.9 °F 1019.5 in South 3.2 mph 17.7 mph 90 % 0.0 in
05:47 9.5 °F 7.9 °F 1019.5 in West 16.1 mph 17.7 mph 90 % 0.0 in
05:52 9.5 °F 7.9 °F 1019.5 in West 3.2 mph 17.7 mph 90 % 0.0 in
05:57 9.5 °F 7.9 °F 1019.5 in WSW 8.0 mph 17.7 mph 90 % 0.0 in
06:02 9.5 °F 7.9 °F 1019.5 in SW 4.8 mph 17.7 mph 90 % 0.0 in
06:12 9.5 °F 7.9 °F 1019.9 in WSW 11.3 mph 19.3 mph 90 % 0.0 in
06:17 9.5 °F 7.9 °F 1019.9 in West 4.8 mph 19.3 mph 90 % 0.0 in
06:22 9.4 °F 7.8 °F 1019.9 in SW 8.0 mph 16.1 mph 90 % 0.0 in
06:27 9.5 °F 7.9 °F 1019.9 in WSW 8.0 mph 16.1 mph 90 % 0.0 in
06:32 9.5 °F 8.1 °F 1019.9 in SW 4.8 mph 16.1 mph 91 % 0.0 in
06:42 9.5 °F 8.1 °F 1019.9 in WSW 8.0 mph 16.1 mph 91 % 0.0 in
06:47 9.6 °F 8.2 °F 1019.9 in SW 6.4 mph 16.1 mph 91 % 0.0 in
07:02 9.7 °F 8.1 °F 1020.2 in SW 4.8 mph 16.1 mph 90 % 0.0 in
07:07 9.7 °F 8.1 °F 1020.2 in West 11.3 mph 16.1 mph 90 % 0.0 in
07:12 9.8 °F 8.2 °F 1020.2 in SW 4.8 mph 16.1 mph 90 % 0.0 in
07:17 9.9 °F 8.3 °F 1020.2 in WSW 3.2 mph 14.5 mph 90 % 0.0 in
07:22 10.1 °F 8.4 °F 1020.5 in SW 4.8 mph 14.5 mph 89 % 0.0 in
07:27 10.2 °F 8.5 °F 1020.5 in WSW 1.6 mph 12.9 mph 89 % 0.0 in
07:32 10.3 °F 8.6 °F 1020.5 in SSW 4.8 mph 12.9 mph 89 % 0.0 in
07:42 10.5 °F 8.6 °F 1020.5 in SW 6.4 mph 14.5 mph 88 % 0.0 in
07:47 10.6 °F 8.7 °F 1020.5 in WSW 8.0 mph 14.5 mph 88 % 0.0 in
07:52 10.7 °F 8.8 °F 1020.5 in WSW 11.3 mph 16.1 mph 88 % 0.0 in
07:57 10.7 °F 8.6 °F 1020.5 in SW 6.4 mph 24.1 mph 87 % 0.0 in
08:02 10.8 °F 8.7 °F 1020.5 in WSW 14.5 mph 24.1 mph 87 % 0.0 in
08:12 11.1 °F 8.8 °F 1020.9 in WSW 8.0 mph 19.3 mph 86 % 0.0 in
08:27 11.4 °F 9.0 °F 1020.9 in WNW 4.8 mph 19.3 mph 85 % 0.0 in
08:32 11.4 °F 8.8 °F 1020.9 in West 4.8 mph 19.3 mph 84 % 0.0 in
08:37 11.4 °F 8.6 °F 1020.9 in NW 12.9 mph 17.7 mph 83 % 0.0 in
08:47 11.6 °F 8.8 °F 1021.2 in WSW 9.7 mph 20.9 mph 83 % 0.0 in
08:52 11.6 °F 8.8 °F 1021.2 in WNW 4.8 mph 20.9 mph 83 % 0.0 in
08:57 11.7 °F 8.9 °F 1021.2 in WSW 9.7 mph 17.7 mph 83 % 0.0 in
09:02 11.8 °F 9.0 °F 1021.2 in WSW 9.7 mph 16.1 mph 83 % 0.0 in
09:07 11.8 °F 8.6 °F 1021.2 in West 6.4 mph 16.1 mph 81 % 0.0 in
09:12 12.1 °F 8.9 °F 1021.6 in WSW 9.7 mph 16.1 mph 81 % 0.0 in
09:17 12.3 °F 8.8 °F 1021.6 in West 6.4 mph 19.3 mph 79 % 0.0 in
09:22 12.4 °F 8.7 °F 1021.6 in West 8.0 mph 20.9 mph 78 % 0.0 in
09:27 12.4 °F 8.7 °F 1021.6 in WSW 6.4 mph 20.9 mph 78 % 0.0 in
09:32 12.5 °F 8.6 °F 1021.6 in WSW 12.9 mph 20.9 mph 77 % 0.0 in
09:37 12.6 °F 8.5 °F 1021.6 in WSW 17.7 mph 20.9 mph 76 % 0.0 in
09:42 12.8 °F 8.7 °F 1021.6 in West 6.4 mph 22.5 mph 76 % 0.0 in
09:47 13.0 °F 8.7 °F 1021.6 in WSW 16.1 mph 22.5 mph 75 % 0.0 in
09:52 12.9 °F 8.4 °F 1021.6 in WSW 11.3 mph 22.5 mph 74 % 0.0 in
10:02 13.1 °F 8.8 °F 1021.6 in SW 6.4 mph 25.7 mph 75 % 0.0 in
10:07 13.3 °F 9.0 °F 1021.6 in WSW 11.3 mph 25.7 mph 75 % 0.0 in
10:12 13.4 °F 8.5 °F 1021.6 in WSW 8.0 mph 24.1 mph 72 % 0.0 in
10:17 13.5 °F 8.8 °F 1021.6 in SSW 11.3 mph 24.1 mph 73 % 0.0 in
10:22 13.8 °F 9.2 °F 1021.6 in West 14.5 mph 24.1 mph 74 % 0.0 in
10:32 13.8 °F 8.0 °F 1021.6 in WSW 6.4 mph 19.3 mph 68 % 0.0 in
10:37 13.9 °F 8.1 °F 1021.9 in West 6.4 mph 22.5 mph 68 % 0.0 in
10:42 13.8 °F 8.2 °F 1021.6 in West 8.0 mph 22.5 mph 69 % 0.0 in
10:47 13.9 °F 8.3 °F 1021.9 in WNW 11.3 mph 20.9 mph 69 % 0.0 in
10:57 14.2 °F 8.2 °F 1021.9 in SW 8.0 mph 22.5 mph 67 % 0.0 in
11:02 14.1 °F 7.4 °F 1021.9 in WSW 12.9 mph 22.5 mph 64 % 0.0 in
11:07 14.1 °F 7.8 °F 1021.9 in WNW 9.7 mph 22.5 mph 66 % 0.0 in
11:12 14.4 °F 7.7 °F 1021.9 in SW 8.0 mph 22.5 mph 64 % 0.0 in
11:17 14.5 °F 7.8 °F 1021.9 in West 9.7 mph 20.9 mph 64 % 0.0 in
11:22 14.8 °F 9.0 °F 1021.9 in SW 9.7 mph 20.9 mph 68 % 0.0 in
11:32 15.2 °F 8.2 °F 1021.9 in West 14.5 mph 24.1 mph 63 % 0.0 in
11:37 14.9 °F 7.7 °F 1021.9 in WSW 19.3 mph 24.1 mph 62 % 0.0 in
11:42 14.9 °F 8.1 °F 1021.9 in West 4.8 mph 25.7 mph 64 % 0.0 in
11:47 15.4 °F 8.4 °F 1021.9 in WSW 8.0 mph 25.7 mph 63 % 0.0 in
11:52 15.4 °F 7.7 °F 1021.9 in WSW 14.5 mph 25.7 mph 60 % 0.0 in
11:57 15.0 °F 7.5 °F 1022.2 in WSW 3.2 mph 20.9 mph 61 % 0.0 in
12:02 15.2 °F 8.2 °F 1021.9 in NW 11.3 mph 20.9 mph 63 % 0.0 in
12:07 15.1 °F 8.1 °F 1021.9 in WSW 11.3 mph 19.3 mph 63 % 0.0 in
12:12 15.1 °F 7.9 °F 1021.9 in West 9.7 mph 19.3 mph 62 % 0.0 in
12:17 15.3 °F 8.3 °F 1022.2 in West 8.0 mph 17.7 mph 63 % 0.0 in
12:22 15.6 °F 8.3 °F 1021.9 in West 11.3 mph 22.5 mph 62 % 0.0 in
12:27 15.8 °F 9.0 °F 1022.2 in WNW 14.5 mph 22.5 mph 64 % 0.0 in
12:32 15.5 °F 7.8 °F 1022.2 in WNW 17.7 mph 30.6 mph 60 % 0.0 in
12:42 15.1 °F 8.1 °F 1022.2 in WSW 9.7 mph 30.6 mph 63 % 0.0 in
12:47 15.0 °F 7.8 °F 1022.2 in West 9.7 mph 29.0 mph 62 % 0.0 in
12:52 15.3 °F 8.1 °F 1021.9 in West 8.0 mph 24.1 mph 62 % 0.0 in
12:57 15.4 °F 7.7 °F 1021.9 in WSW 11.3 mph 19.3 mph 60 % 0.0 in
13:02 15.4 °F 7.9 °F 1022.2 in WNW 11.3 mph 22.5 mph 61 % 0.0 in
13:07 15.5 °F 8.2 °F 1022.2 in WSW 24.1 mph 24.1 mph 62 % 0.0 in
13:12 15.8 °F 8.0 °F 1022.2 in West 14.5 mph 25.7 mph 60 % 0.0 in
13:17 16.3 °F 8.3 °F 1021.9 in WSW 12.9 mph 27.4 mph 59 % 0.0 in
13:22 16.6 °F 7.8 °F 1021.9 in WSW 12.9 mph 27.4 mph 56 % 0.0 in
13:27 16.4 °F 7.9 °F 1021.9 in West 8.0 mph 24.1 mph 57 % 0.0 in
13:32 16.2 °F 7.7 °F 1022.2 in WNW 11.3 mph 24.1 mph 57 % 0.0 in
13:42 16.2 °F 8.2 °F 1021.9 in WNW 9.7 mph 24.1 mph 59 % 0.0 in
13:47 16.1 °F 8.1 °F 1021.9 in NW 16.1 mph 20.9 mph 59 % 0.0 in
13:52 16.3 °F 8.5 °F 1021.9 in West 14.5 mph 20.9 mph 60 % 0.0 in
13:57 16.4 °F 7.1 °F 1021.9 in WSW 9.7 mph 20.9 mph 54 % 0.0 in
14:02 16.6 °F 7.5 °F 1021.9 in WSW 25.7 mph 25.7 mph 55 % 0.0 in
14:07 16.6 °F 8.0 °F 1021.9 in West 9.7 mph 29.0 mph 57 % 0.0 in
14:12 16.6 °F 8.3 °F 1021.9 in WNW 12.9 mph 30.6 mph 58 % 0.0 in
14:17 16.8 °F 8.2 °F 1021.9 in WNW 11.3 mph 30.6 mph 57 % 0.0 in
14:22 17.2 °F 8.3 °F 1021.9 in West 12.9 mph 30.6 mph 56 % 0.0 in
14:27 17.3 °F 8.2 °F 1021.9 in SW 9.7 mph 27.4 mph 55 % 0.0 in
14:32 17.7 °F 9.1 °F 1021.9 in West 9.7 mph 24.1 mph 57 % 0.0 in
14:37 17.8 °F 8.6 °F 1021.9 in West 9.7 mph 24.1 mph 55 % 0.0 in
14:42 17.5 °F 8.6 °F 1021.9 in SW 6.4 mph 24.1 mph 56 % 0.0 in
14:47 17.3 °F 9.0 °F 1021.9 in West 9.7 mph 20.9 mph 58 % 0.0 in
14:52 17.3 °F 8.7 °F 1021.9 in WSW 14.5 mph 22.5 mph 57 % 0.0 in
14:57 17.4 °F 8.8 °F 1021.9 in SW 9.7 mph 22.5 mph 57 % 0.0 in
15:02 17.6 °F 8.7 °F 1021.6 in SSW 14.5 mph 27.4 mph 56 % 0.0 in
15:07 17.4 °F 8.8 °F 1021.6 in West 12.9 mph 27.4 mph 57 % 0.0 in
15:12 17.5 °F 8.6 °F 1021.6 in SW 6.4 mph 27.4 mph 56 % 0.0 in
15:17 17.7 °F 9.3 °F 1021.6 in WNW 6.4 mph 25.7 mph 58 % 0.0 in
15:22 18.0 °F 8.8 °F 1021.6 in WSW 11.3 mph 19.3 mph 55 % 0.0 in
15:27 18.1 °F 9.2 °F 1021.6 in West 19.3 mph 22.5 mph 56 % 0.0 in
15:32 18.3 °F 9.6 °F 1021.6 in WNW 6.4 mph 25.7 mph 57 % 0.0 in
15:37 18.0 °F 8.8 °F 1021.6 in West 8.0 mph 25.7 mph 55 % 0.0 in
15:42 17.9 °F 9.3 °F 1021.6 in WSW 9.7 mph 25.7 mph 57 % 0.0 in
15:47 18.1 °F 9.2 °F 1021.6 in WSW 16.1 mph 19.3 mph 56 % 0.0 in
15:52 18.2 °F 9.3 °F 1021.6 in WSW 4.8 mph 16.1 mph 56 % 0.0 in
15:57 18.3 °F 8.8 °F 1021.6 in West 11.3 mph 16.1 mph 54 % 0.0 in
16:02 17.9 °F 9.0 °F 1021.6 in WSW 11.3 mph 24.1 mph 56 % 0.0 in
16:07 18.0 °F 9.1 °F 1021.6 in SSW 6.4 mph 24.1 mph 56 % 0.0 in
16:12 18.3 °F 8.6 °F 1021.6 in SW 14.5 mph 24.1 mph 53 % 0.0 in
16:17 18.4 °F 8.6 °F 1021.6 in WSW 8.0 mph 20.9 mph 53 % 0.0 in
16:22 18.3 °F 8.6 °F 1021.6 in West 12.9 mph 20.9 mph 53 % 0.0 in
16:27 18.2 °F 9.0 °F 1021.6 in WNW 12.9 mph 20.9 mph 55 % 0.0 in
16:32 18.5 °F 9.3 °F 1021.6 in West 1.6 mph 19.3 mph 55 % 0.0 in
16:37 18.9 °F 8.8 °F 1021.6 in West 9.7 mph 17.7 mph 52 % 0.0 in
16:42 18.9 °F 8.8 °F 1021.6 in West 3.2 mph 17.7 mph 52 % 0.0 in
16:52 19.1 °F 8.7 °F 1021.6 in West 3.2 mph 22.5 mph 51 % 0.0 in
17:02 18.7 °F 9.5 °F 1021.6 in West 8.0 mph 19.3 mph 55 % 0.0 in
17:12 18.8 °F 9.0 °F 1021.6 in WSW 8.0 mph 17.7 mph 53 % 0.0 in
17:17 19.1 °F 9.0 °F 1021.6 in West 8.0 mph 17.7 mph 52 % 0.0 in
17:22 19.0 °F 8.9 °F 1021.6 in WSW 8.0 mph 17.7 mph 52 % 0.0 in
17:27 19.2 °F 9.1 °F 1021.6 in WSW 3.2 mph 19.3 mph 52 % 0.0 in
17:32 19.3 °F 8.9 °F 1021.6 in West 6.4 mph 19.3 mph 51 % 0.0 in
17:37 19.3 °F 9.5 °F 1021.6 in WSW 8.0 mph 19.3 mph 53 % 0.0 in
17:42 19.2 °F 8.5 °F 1021.6 in WSW 12.9 mph 17.7 mph 50 % 0.0 in
17:47 18.7 °F 8.6 °F 1021.6 in West 11.3 mph 19.3 mph 52 % 0.0 in
17:52 18.5 °F 7.9 °F 1021.6 in WSW 3.2 mph 19.3 mph 50 % 0.0 in
17:57 18.7 °F 8.6 °F 1021.6 in WSW 4.8 mph 19.3 mph 52 % 0.0 in
18:02 18.8 °F 8.4 °F 1021.6 in WSW 16.1 mph 22.5 mph 51 % 0.0 in
18:07 18.6 °F 8.3 °F 1021.6 in SSW 8.0 mph 22.5 mph 51 % 0.0 in
18:12 18.8 °F 8.4 °F 1021.6 in SW 3.2 mph 22.5 mph 51 % 0.0 in
18:17 19.2 °F 8.8 °F 1021.6 in WSW 14.5 mph 19.3 mph 51 % 0.0 in
18:22 19.3 °F 8.6 °F 1021.6 in West 9.7 mph 20.9 mph 50 % 0.0 in
18:32 18.8 °F 9.0 °F 1021.2 in WSW 4.8 mph 20.9 mph 53 % 0.0 in
18:37 18.9 °F 9.1 °F 1021.2 in WNW 4.8 mph 19.3 mph 53 % 0.0 in
18:42 19.2 °F 8.8 °F 1021.2 in WSW 6.4 mph 14.5 mph 51 % 0.0 in
18:47 19.3 °F 8.9 °F 1021.2 in West 8.0 mph 11.3 mph 51 % 0.0 in
18:52 18.8 °F 8.7 °F 1021.2 in WSW 6.4 mph 17.7 mph 52 % 0.0 in
18:57 19.1 °F 9.0 °F 1021.2 in WSW 9.7 mph 17.7 mph 52 % 0.0 in
19:02 19.2 °F 9.1 °F 1021.2 in West 9.7 mph 17.7 mph 52 % 0.0 in
19:12 19.3 °F 8.9 °F 1021.2 in SSW 3.2 mph 19.3 mph 51 % 0.0 in
19:17 19.3 °F 9.5 °F 1021.2 in West 4.8 mph 19.3 mph 53 % 0.0 in
19:22 19.0 °F 9.2 °F 1021.2 in WSW 6.4 mph 14.5 mph 53 % 0.0 in
19:27 18.8 °F 9.3 °F 1021.2 in SW 4.8 mph 11.3 mph 54 % 0.0 in
19:32 18.8 °F 9.0 °F 1021.2 in SW 4.8 mph 12.9 mph 53 % 0.0 in
19:37 18.9 °F 8.8 °F 1021.2 in WSW 4.8 mph 12.9 mph 52 % 0.0 in
19:42 19.1 °F 9.6 °F 1021.2 in SW 1.6 mph 12.9 mph 54 % 0.0 in
19:47 19.2 °F 9.4 °F 1021.2 in West 3.2 mph 11.3 mph 53 % 0.0 in
19:52 19.1 °F 9.0 °F 1021.2 in West 8.0 mph 11.3 mph 52 % 0.0 in
19:57 18.8 °F 9.0 °F 1021.2 in West 6.4 mph 16.1 mph 53 % 0.0 in
20:07 18.2 °F 9.3 °F 1021.2 in West 6.4 mph 17.7 mph 56 % 0.0 in
20:12 18.1 °F 9.4 °F 1021.2 in WSW 1.6 mph 17.7 mph 57 % 0.0 in
20:17 17.9 °F 9.3 °F 1021.2 in West 3.2 mph 12.9 mph 57 % 0.0 in
20:22 17.8 °F 9.4 °F 1021.6 in WSW 1.6 mph 8.0 mph 58 % 0.0 in
20:27 17.7 °F 9.3 °F 1021.6 in WSW 1.6 mph 4.8 mph 58 % 0.0 in
20:37 17.9 °F 9.5 °F 1021.6 in SW 4.8 mph 4.8 mph 58 % 0.0 in
20:42 18.0 °F 9.4 °F 1021.6 in SW 3.2 mph 6.4 mph 57 % 0.0 in
20:52 17.9 °F 9.3 °F 1021.6 in SW 3.2 mph 11.3 mph 57 % 0.0 in
20:57 17.8 °F 8.9 °F 1021.6 in WSW 3.2 mph 11.3 mph 56 % 0.0 in
21:02 17.6 °F 9.2 °F 1021.6 in SW 3.2 mph 9.7 mph 58 % 0.0 in
21:07 17.4 °F 9.1 °F 1021.6 in SW 6.4 mph 9.7 mph 58 % 0.0 in
21:12 17.3 °F 9.2 °F 1021.2 in SW 3.2 mph 9.7 mph 59 % 0.0 in
21:17 17.1 °F 9.3 °F 1021.2 in SW 3.2 mph 8.0 mph 60 % 0.0 in
21:22 16.8 °F 9.5 °F 1021.6 in Calm   6.4 mph 62 % 0.0 in
21:32 16.2 °F 9.6 °F 1021.6 in Calm   4.8 mph 65 % 0.0 in
21:37 15.9 °F 10.0 °F 1021.6 in Calm   3.2 mph 68 % 0.0 in
21:42 15.6 °F 9.9 °F 1021.6 in Calm   3.2 mph 69 % 0.0 in
21:47 15.3 °F 9.6 °F 1021.6 in Calm   1.6 mph 69 % 0.0 in
21:52 15.0 °F 10.0 °F 1021.6 in Calm     72 % 0.0 in
21:57 14.7 °F 10.1 °F 1021.6 in Calm     74 % 0.0 in
22:02 14.4 °F 10.0 °F 1021.6 in Calm     75 % 0.0 in
22:07 14.2 °F 10.0 °F 1021.6 in Calm     76 % 0.0 in
22:12 14.1 °F 9.9 °F 1021.6 in Calm     76 % 0.0 in
22:17 14.0 °F 10.0 °F 1021.6 in Calm     77 % 0.0 in
22:22 13.9 °F 9.9 °F 1021.6 in Calm     77 % 0.0 in
22:27 13.9 °F 10.1 °F 1021.6 in Calm     78 % 0.0 in
22:32 13.6 °F 9.8 °F 1021.6 in Calm     78 % 0.0 in
22:37 13.3 °F 9.7 °F 1021.6 in Calm     79 % 0.0 in
22:42 13.0 °F 9.6 °F 1021.9 in Calm     80 % 0.0 in
22:47 12.8 °F 9.6 °F 1021.9 in Calm     81 % 0.0 in
22:52 12.7 °F 9.7 °F 1021.6 in Calm     82 % 0.0 in
22:57 12.6 °F 9.6 °F 1021.9 in Calm     82 % 0.0 in
23:02 12.6 °F 9.6 °F 1021.9 in Calm     82 % 0.0 in
23:12 12.4 °F 9.6 °F 1021.6 in Calm     83 % 0.0 in
23:17 12.3 °F 9.5 °F 1021.6 in Calm     83 % 0.0 in
23:22 12.2 °F 9.4 °F 1021.6 in Calm     83 % 0.0 in
23:27 12.2 °F 9.4 °F 1021.9 in Calm     83 % 0.0 in
23:32 12.1 °F 9.5 °F 1021.6 in Calm     84 % 0.0 in
23:37 11.9 °F 9.5 °F 1021.6 in Calm     85 % 0.0 in
23:42 11.9 °F 9.5 °F 1021.6 in Calm     85 % 0.0 in
23:47 11.8 °F 9.4 °F 1021.6 in Calm     85 % 0.0 in
23:52 11.7 °F 9.4 °F 1021.6 in Calm     86 % 0.0 in
23:57 11.6 °F 9.3 °F 1021.6 in Calm     86 % 0.0 in
Meteo18
Compliments of Weather Underground - 4 mb

Script developed by  Jim McMurry - jmcmurry@mwt.net Adapted for the template by  Wim van der Kuil - Leuven-Template.eu

You find our weather info also at:

European Weather Network

Weather Underground

Equipment we use:

Weather-station
Davis Vue

Weather-program
Meteobridge

Weather-server
Raspberry PI 2 B+

Provider
1 and 1

Davis Vue

Meteobridge

Raspberry PI 2 B+

1 and 1